TECHNOSAT (42829 NORAD) Tracking and Keplerian Element Data

This shows tracking and keplerian element data for the satellite.

Feedback or suggestion? Click here.




ElementValue
Catalog42829
NameTECHNOSAT
Epoch Orbit41189
Epoch Day35.05421578
Epoch Year2025
RAAN209.8511
Inclination97.3911
Eccentricity0.0012556
Argument of Perigee3.3199
Mean Anonmoly356.8106
Mean Motion15.00198162
Decay Rate5.377E-05
L11 42829U 17042E 25035.05421578 .00005377 00000+0 43384-3 0 9992
L22 42829 97.3911 209.8511 0012556 3.3199 356.8106 15.00198162411892



Live tracking and technical data element details for TECHNOSAT (NORAD 42829). TECHNOSAT can be tracked NOW for your location showing map with azimuth and elevation plus other details from your city location.







IsCatalogInMostPopularTable: catalog: 42829, numindb: 1014
Update: records affected: 1



GetName: 42829 TECHNOSAT

Hit Count: updated at: Thu, 19 Jun 2025 09:55:32 GMT